Location: Audinghen
(50.8518°N, 1.6129°E)
Time: 05:33:23
(UTC+00:00)

Cosmos 2026 Rocket - Pass Details

Date: 07 August 2020
Orbit: 940 x 1001 km, 82.9° (Epoch: 19 September)

Event Time Altitude Azimuth Distance (km) Brightness Sun altitude
Rises 01:39:25 0° 348° (NNW) 3,616 7.8 -19.3°
Reaches altitude 10° 01:41:54 10° 346° (NNW) 2,669 7.0 -19.2°
Maximum altitude 01:47:56 67° 265° (W) 1,021 3.9 -18.7°
Enters shadow 01:51:06 29° 191° (SSW) 1,652 4.7 -18.5°
